Location: Coed Ely
(51.5661°N, 3.4150°W)
Time: 02:24:49
(UTC+00:00)

NOSS 2-1 (D) - Pass Details

Date: 28 January 2021
Orbit: 434 x 1768 km, 63.3° (Epoch: 24 February)

Event Time Altitude Azimuth Distance (km) Brightness Sun altitude
Rises 19:14:31 0° 249° (WSW) 2,409 7.9 -21.4°
Reaches altitude 10° 19:16:37 10° 258° (WSW) 1,549 6.7 -21.7°
Maximum altitude 19:19:42 35° 327° (NNW) 764 4.2 -22.2°
Enters shadow 19:20:15 33° 349° (N) 810 4.2 -22.2°
